Hourly Data Report for September 01, 2017

All times are specified in Local Standard Time (LST). Add 1 hour to adjust for Daylight Saving Time where and when it is observed.

QIKIQTARJUAQ A
NUNAVUT

67°32'48.000" N
64°01'54.000" W
5.50 m
2400577
YVM

Related Data

No related data is available for this station

Download Data

Hourly Data (September 2017)
Hourly Data Report for September 1, 2017
Temp Definition
°C
Dew Point Temp Definition
°C
Rel Hum Definition
%
Wind Dir Definition
10's deg

Wind Spd Definition
km/h
Visibility Definition
km
Stn Press Definition
kPa
Hmdx Definition


Wind Chill Definition


Weather Definition


TIME
00:00 Legend Double Dagger 1.6 1.0 96   0 16.1 99.92     LegendNANA
01:00 Legend Double Dagger 1.8 0.5 91   0 16.1 99.90     LegendNANA
02:00 Legend Double Dagger 1.1 0.2 94 LegendMM 5 16.1 99.87     LegendNANA
03:00 Legend Double Dagger 1.2 -0.4 89   0 16.1 99.84     LegendNANA
04:00 Legend Double Dagger 0.7 -0.4 93   0 16.1 99.83     LegendNANA
05:00 Legend Double Dagger 1.2 -0.5 88 19 8 16.1 99.81     LegendNANA
06:00 Legend Double Dagger 1.8 0.3 90 20 9 16.1 99.80     LegendNANA
07:00 Legend Double Dagger 3.7 0.5 80 20 11 16.1 99.76     LegendNANA
08:00 Legend Double Dagger 5.4 0.3 69 20 8 16.1 99.73     LegendNANA
09:00 Legend Double Dagger 5.4 -0.5 66 19 17 16.1 99.69     LegendNANA
10:00 Legend Double Dagger 5.9 0.6 69 20 17 16.1 99.67     LegendNANA
11:00 Legend Double Dagger 5.7 0.3 68 21 13 16.1 99.64     LegendNANA
12:00 Legend Double Dagger 6.6 0.7 66 19 8 16.1 99.62     LegendNANA
13:00 Legend Double Dagger 3.2 1.2 87 2 4 16.1 99.63     LegendNANA
14:00 Legend Double Dagger 4.6 1.0 78   0 16.1 99.62     LegendNANA
15:00 Legend Double Dagger 5.6 1.5 75 6 13 16.1 99.66     LegendNANA
16:00 Legend Double Dagger 4.9 0.9 75 3 15 16.1 99.69     LegendNANA
17:00 Legend Double Dagger 4.0 1.4 83 7 5 16.1 99.70     LegendNANA
18:00 Legend Double Dagger 2.6 1.3 91 31 8 16.1 99.69     LegendNANA
19:00 Legend Double Dagger 2.7 1.5 92 LegendMM 4 16.1 99.70     LegendNANA
20:00 Legend Double Dagger 2.7 1.2 90 LegendMM 4 16.1 99.69     LegendNANA
21:00 Legend Double Dagger 2.6 1.4 92 LegendMM 4 16.1 99.72     LegendNANA
22:00 Legend Double Dagger 3.0 1.8 92 LegendMM 4 16.1 99.74     LegendNANA
23:00 Legend Double Dagger 2.6 2.0 96 6 8 16.1 99.81     LegendNANA

Notes on Data Quality.

Legend

  • E = Estimated
  • M = Missing
  • NA = Not Available
  • ‡ = Partner data that is not subject to review by the National Climate Archives
Date modified: